Regional Weather Roundup
Issued by NWS

Home | Current Version | Previous Version | Graphics & Text | Print | Product List | Glossary On
Versions: 1 2 3 4 5 6 7 8 9 10 11 12 13 14 15 16 17 18 19 20 21 22 23 24 25 26 27 28 29 30 31 32 33 34 35 36 37 38 39 40 41 42 43 44 45 46 47 48 49 50
642
ASUS45 KCYS 250610
RWRWY

WYOMING REGIONAL WEATHER ROUNDUP
NATIONAL WEATHER SERVICE CHEYENNE WY
1200 AM MDT THU AUG 25 2016

NOTE:  "FAIR" INDICATES FEW OR NO CLOUDS BELOW 12,000 FEET
WITH NO SIGNIFICANT WEATHER AND/OR OBSTRUCTIONS TO VISIBILITY.

WYZ001-250700-
YELLOWSTONE NATIONAL PARK

CITY           SKY/WX    TMP DP  RH WIND       PRES   REMARKS
LK YELLOWSTONE   N/A     32  32 100 NW3       30.41F
6HR MIN TEMP:  32; 6HR MAX TEMP:  50;

W YELLOWSTONE  NOT AVBL

$$
WYZ002>013-054>058-071-098>099-250700-
NORTHERN WYOMING

CITY           SKY/WX    TMP DP  RH WIND       PRES   REMARKS
JACKSON        FAIR      48  34  57 N15       30.29S
CODY           CLOUDY    52  43  71 N7        30.36S
GREYBULL       MOCLDY    59  38  45 NW20      30.27S
6HR MIN TEMP:  59; 6HR MAX TEMP:  69;

WORLAND        LGT RAIN  54  50  86 SW8       30.32R
6HR MIN TEMP:  54; 6HR MAX TEMP:  69;

SHERIDAN       CLOUDY    55  41  59 NW9       30.33S
6HR MIN TEMP:  55; 6HR MAX TEMP:  63;

BUFFALO        CLOUDY    53  40  61 N12       30.35S
6HR MIN TEMP:  53; 6HR MAX TEMP:  61; 6HR PCP: TRACE;

GILLETTE       FAIR      53  41  63 N12       30.30S
6HR MIN TEMP:  53; 6HR MAX TEMP:  67;

HULETT         FAIR      52  39  62 N3        30.31R
NEWCASTLE      CLOUDY    59  37  44 N10       30.27S

$$
WYZ014>020-022>026-101>103-250700-
CENTRAL WYOMING

CITY           SKY/WX    TMP DP  RH WIND       PRES   REMARKS
BIG PINEY      FAIR      45  22  40 SW6       30.31R
6HR MIN TEMP:  45; 6HR MAX TEMP:  73;

PINEDALE       FAIR      46  34  61 E3        30.30R
DUBOIS         MOCLDY    45  32  61 CALM      30.35S
LANDER         LGT RAIN  51  44  77 N6        30.34S
6HR MIN TEMP:  51; 6HR MAX TEMP:  71; 6HR PCP: TRACE;

RIVERTON       LGT RAIN  50  44  80 N6        30.36R
6HR MIN TEMP:  50; 6HR MAX TEMP:  70; 6HR PCP: TRACE;

CASPER         RAIN      51  47  86 N14       30.32R
6HR MIN TEMP:  51; 6HR MAX TEMP:  71; 6HR PCP:  0.01;

DOUGLAS        CLOUDY    57  42  57 NE10      30.28R
6HR MIN TEMP:  56; 6HR MAX TEMP:  72; 6HR PCP: TRACE;


$$
WYZ021-027>030-104>119-250700-
SOUTHERN WYOMING

CITY           SKY/WX    TMP DP  RH WIND       PRES   REMARKS
EVANSTON       FAIR      54  15  21 S6        30.28S
6HR MIN TEMP:  52; 6HR MAX TEMP:  70;

FORT BRIDGER   FAIR      53  16  23 W7        30.30S
ROCK SPRINGS   NOT AVBL
DIXON          FAIR      52  31  43 NE6       30.20S
RAWLINS        FAIR      53  38  56 N17       30.27R
6HR MIN TEMP:  53; 6HR MAX TEMP:  68;

SARATOGA       MOCLDY    46  41  81 NW5       30.24F
LARAMIE        FAIR      44  39  82 E5        30.28S
6HR MIN TEMP:  44; 6HR MAX TEMP:  60; 6HR PCP: TRACE;

CHEYENNE       FAIR      51  46  83 E3        30.27F
6HR MIN TEMP:  50; 6HR MAX TEMP:  62; 6HR PCP: TRACE;

TORRINGTON     FAIR      52  49  89 S5        30.21F
6HR MIN TEMP:  52; 6HR MAX TEMP:  70; 6HR PCP: TRACE;

PINE BLUFFS    FAIR      50  43  76 CALM      30.25F

$$




USA.gov is the U.S. government's official web portal to all federal, state and local government web resources and services.